PAS221 EPWR-LATI

Flight info

Callsign PAS221
Flight time 1h 30m
Altitude 37000
Route PEKOT L616 DESEN DCT VALPI DCT TONDO DCT KOSIV/N0459F380 DCT AKIKA/N0391F180 T8 INLOT
Aircraft B738/M-SDE2E3FGHIRWXY/LB1

Departure

Time 2026-05-08 15:57
Airport Copernicus Wrocław Airport (EPWR)

Arrival

Time 2026-05-08 17:27
Airport Tirana International Airport Mother Teresa (LATI)
Time Latitude Longitude Altitude Speed Heading
2026-05-08 15:36 51.10888 16.87940 402 ft 0 kts 26°
2026-05-08 15:44 51.10883 16.87936 403 ft 3 kts 25°
2026-05-08 15:45 51.10865 16.87922 401 ft 3 kts 25°
2026-05-08 15:45 51.10846 16.87909 400 ft 3 kts 21°
2026-05-08 15:45 51.10830 16.87901 398 ft 1 kts
2026-05-08 15:45 51.10821 16.87902 400 ft 1 kts 330°
2026-05-08 15:46 51.10815 16.87910 401 ft 1 kts 304°
2026-05-08 15:46 51.10810 16.87921 397 ft 1 kts 297°
2026-05-08 15:46 51.10807 16.87931 398 ft 0 kts 295°
2026-05-08 15:52 51.10808 16.87926 402 ft 2 kts 295°
2026-05-08 15:52 51.10824 16.87874 402 ft 9 kts 297°
2026-05-08 15:53 51.10862 16.87753 401 ft 16 kts 295°
2026-05-08 15:53 51.10919 16.87567 401 ft 22 kts 295°
2026-05-08 15:53 51.10879 16.87363 399 ft 25 kts 207°
2026-05-08 15:53 51.10715 16.87215 403 ft 27 kts 239°
2026-05-08 15:54 51.10764 16.86961 401 ft 25 kts 299°
2026-05-08 15:54 51.10822 16.86719 401 ft 23 kts 272°
2026-05-08 15:54 51.10869 16.86598 400 ft 4 kts
2026-05-08 15:54 51.10871 16.86605 400 ft 1 kts 55°
2026-05-08 15:55 51.10869 16.86611 400 ft 1 kts 103°
2026-05-08 15:55 51.10854 16.86669 400 ft 0 kts 116°
2026-05-08 15:56 51.10845 16.86697 399 ft 22 kts 116°
2026-05-08 15:56 51.10646 16.87347 400 ft 106 kts 116°
2026-05-08 15:57 51.10228 16.88730 483 ft 165 kts 112°
2026-05-08 15:57 51.09748 16.90469 1306 ft 178 kts 110°
2026-05-08 15:57 51.09247 16.92356 2116 ft 198 kts 113°
2026-05-08 15:57 51.08618 16.94363 2806 ft 214 kts 115°
2026-05-08 15:58 51.07847 16.96472 3403 ft 221 kts 134°
2026-05-08 15:58 51.06592 16.97732 4083 ft 218 kts 168°
2026-05-08 15:58 51.05045 16.97760 4556 ft 227 kts 190°
2026-05-08 15:58 51.03446 16.98182 5065 ft 243 kts 159°
2026-05-08 15:59 51.01937 16.99382 5677 ft 248 kts 156°
2026-05-08 15:59 51.00393 17.00609 6321 ft 252 kts 157°
2026-05-08 15:59 50.98737 17.01887 6752 ft 268 kts 157°
2026-05-08 15:59 50.97019 17.03177 7398 ft 277 kts 158°
2026-05-08 16:00 50.95294 17.04450 8343 ft 277 kts 158°
2026-05-08 16:00 50.93531 17.05731 9265 ft 280 kts 159°
2026-05-08 16:00 50.91753 17.07008 10162 ft 284 kts 159°
2026-05-08 16:00 50.89908 17.08318 10711 ft 300 kts 159°
2026-05-08 16:01 50.87915 17.09719 10895 ft 326 kts 159°
2026-05-08 16:01 50.85764 17.11225 11087 ft 350 kts 159°
2026-05-08 16:01 50.83482 17.12821 11478 ft 365 kts 159°
2026-05-08 16:01 50.81144 17.14457 12182 ft 369 kts 159°
2026-05-08 16:02 50.78793 17.16100 12996 ft 371 kts 159°
2026-05-08 16:02 50.76433 17.17746 13737 ft 374 kts 159°
2026-05-08 16:02 50.74033 17.19415 14417 ft 377 kts 159°
2026-05-08 16:02 50.71620 17.21089 15120 ft 380 kts 159°
2026-05-08 16:03 50.69199 17.22767 15810 ft 382 kts 159°
2026-05-08 16:03 50.66755 17.24459 16473 ft 385 kts 159°
2026-05-08 16:03 50.64293 17.26159 17118 ft 388 kts 159°
2026-05-08 16:03 50.61815 17.27870 17761 ft 391 kts 159°
2026-05-08 16:04 50.59312 17.29595 18392 ft 394 kts 159°
2026-05-08 16:04 50.56792 17.31331 18949 ft 397 kts 159°
2026-05-08 16:04 50.54262 17.33071 19558 ft 397 kts 159°
2026-05-08 16:04 50.51726 17.34814 20154 ft 398 kts 159°
2026-05-08 16:05 50.49182 17.36560 20725 ft 400 kts 160°
2026-05-08 16:05 50.46629 17.38310 21270 ft 401 kts 160°
2026-05-08 16:05 50.44069 17.40062 21812 ft 403 kts 160°
2026-05-08 16:05 50.41494 17.41823 22339 ft 404 kts 160°
2026-05-08 16:06 50.38910 17.43588 22878 ft 405 kts 160°
2026-05-08 16:06 50.36322 17.45354 23391 ft 407 kts 160°
2026-05-08 16:06 50.33718 17.47130 23862 ft 408 kts 160°
2026-05-08 16:06 50.31107 17.48907 24269 ft 410 kts 160°
2026-05-08 16:07 50.28487 17.50686 24662 ft 411 kts 161°
2026-05-08 16:07 50.25804 17.52214 25025 ft 409 kts 168°
2026-05-08 16:07 50.23031 17.53224 25412 ft 409 kts 171°
2026-05-08 16:07 50.20248 17.54183 25801 ft 410 kts 171°
2026-05-08 16:08 50.17460 17.55144 26177 ft 411 kts 171°
2026-05-08 16:08 50.14661 17.56114 26515 ft 413 kts 171°
2026-05-08 16:08 50.11853 17.57096 26857 ft 415 kts 171°
2026-05-08 16:08 50.09030 17.58088 27193 ft 416 kts 171°
2026-05-08 16:09 50.06201 17.59086 27505 ft 418 kts 171°
2026-05-08 16:09 50.04323 17.59749 27711 ft 419 kts 171°
2026-05-08 16:09 50.00511 17.61095 28123 ft 421 kts 171°
2026-05-08 16:09 49.97654 17.62104 28418 ft 422 kts 171°
2026-05-08 16:10 49.94790 17.63114 28804 ft 421 kts 171°
2026-05-08 16:10 49.91940 17.64119 29264 ft 419 kts 171°
2026-05-08 16:10 49.89109 17.65116 29702 ft 417 kts 171°
2026-05-08 16:10 49.86279 17.66110 30128 ft 416 kts 171°
2026-05-08 16:11 49.83464 17.67098 30475 ft 415 kts 171°
2026-05-08 16:11 49.80681 17.68072 30762 ft 416 kts 171°
2026-05-08 16:11 49.77857 17.69059 31042 ft 416 kts 171°
2026-05-08 16:11 49.75038 17.70044 31378 ft 416 kts 171°
2026-05-08 16:12 49.72215 17.71029 31727 ft 415 kts 171°
2026-05-08 16:12 49.70450 17.71645 31931 ft 415 kts 171°
2026-05-08 16:12 49.67634 17.72626 32237 ft 415 kts 171°
2026-05-08 16:12 49.64820 17.73605 32547 ft 415 kts 171°
2026-05-08 16:13 49.62005 17.74583 32877 ft 414 kts 171°
2026-05-08 16:13 49.59199 17.75558 33206 ft 414 kts 171°
2026-05-08 16:13 49.56391 17.76531 33493 ft 414 kts 171°
2026-05-08 16:13 49.53582 17.77504 33806 ft 414 kts 171°
2026-05-08 16:14 49.50771 17.78476 34109 ft 413 kts 171°
2026-05-08 16:14 49.47965 17.79446 34353 ft 414 kts 171°
2026-05-08 16:14 49.45152 17.80416 34517 ft 416 kts 171°
2026-05-08 16:14 49.42321 17.81391 34694 ft 417 kts 171°
2026-05-08 16:15 49.39492 17.82365 34931 ft 417 kts 171°
2026-05-08 16:15 49.36655 17.83340 35127 ft 419 kts 171°
2026-05-08 16:15 49.33804 17.84319 35288 ft 420 kts 171°
2026-05-08 16:15 49.30946 17.85300 35483 ft 421 kts 171°
2026-05-08 16:16 49.28088 17.86280 35697 ft 422 kts 171°
2026-05-08 16:16 49.25219 17.87262 35873 ft 423 kts 171°
2026-05-08 16:16 49.22340 17.88246 36049 ft 424 kts 171°
2026-05-08 16:16 49.19455 17.89231 36209 ft 426 kts 171°
2026-05-08 16:17 49.16553 17.90221 36367 ft 428 kts 171°
2026-05-08 16:17 49.14629 17.90876 36494 ft 428 kts 171°
2026-05-08 16:17 49.10734 17.92203 36727 ft 429 kts 171°
2026-05-08 16:17 49.07818 17.93195 36759 ft 432 kts 173°
2026-05-08 16:18 49.01882 17.95254 36839 ft 443 kts 169°
2026-05-08 16:18 48.95925 17.98107 37013 ft 452 kts 166°
2026-05-08 16:19 48.90015 18.01153 37052 ft 447 kts 166°
2026-05-08 16:19 48.84173 18.04136 37053 ft 439 kts 167°
2026-05-08 16:20 48.78394 18.07028 37045 ft 436 kts 167°
2026-05-08 16:20 48.72641 18.09879 37063 ft 434 kts 167°
2026-05-08 16:21 48.66910 18.12710 37050 ft 433 kts 167°
2026-05-08 16:21 48.61175 18.15538 37057 ft 433 kts 167°
2026-05-08 16:22 48.56368 18.17902 37050 ft 434 kts 167°
2026-05-08 16:22 48.49683 18.21185 37046 ft 435 kts 167°
2026-05-08 16:23 48.43915 18.24010 37048 ft 437 kts 167°
2026-05-08 16:23 48.38116 18.26843 37045 ft 439 kts 167°
2026-05-08 16:24 48.32302 18.29678 37040 ft 440 kts 167°
2026-05-08 16:24 48.27465 18.32032 37044 ft 440 kts 167°
2026-05-08 16:25 48.21640 18.34860 37039 ft 440 kts 167°
2026-05-08 16:25 48.15819 18.37679 37041 ft 441 kts 167°
2026-05-08 16:26 48.09921 18.40523 37046 ft 449 kts 167°
2026-05-08 16:26 48.03940 18.43403 37032 ft 453 kts 167°
2026-05-08 16:27 47.97935 18.46293 37041 ft 454 kts 167°
2026-05-08 16:27 47.91925 18.49178 37033 ft 454 kts 167°
2026-05-08 16:28 47.85913 18.52055 37031 ft 453 kts 167°
2026-05-08 16:28 47.79918 18.54917 37028 ft 452 kts 168°
2026-05-08 16:29 47.73934 18.57765 37029 ft 451 kts 167°
2026-05-08 16:29 47.68003 18.60582 37031 ft 450 kts 167°
2026-05-08 16:30 47.62043 18.63405 37028 ft 450 kts 167°
2026-05-08 16:30 47.56082 18.66222 37029 ft 449 kts 168°
2026-05-08 16:31 47.50131 18.69028 37035 ft 449 kts 167°
2026-05-08 16:31 47.44180 18.71827 37026 ft 449 kts 167°
2026-05-08 16:32 47.38235 18.74617 37029 ft 448 kts 167°
2026-05-08 16:32 47.32283 18.77403 37021 ft 449 kts 167°
2026-05-08 16:33 47.26334 18.80181 37028 ft 448 kts 167°
2026-05-08 16:33 47.20390 18.82951 37010 ft 448 kts 167°
2026-05-08 16:34 47.14445 18.85714 37027 ft 448 kts 168°
2026-05-08 16:34 47.08498 18.88473 37023 ft 448 kts 168°
2026-05-08 16:35 47.02554 18.91222 37020 ft 448 kts 168°
2026-05-08 16:35 46.96658 18.93944 37021 ft 447 kts 167°
2026-05-08 16:36 46.90725 18.96677 37021 ft 447 kts 167°
2026-05-08 16:36 46.84789 18.99404 37020 ft 447 kts 168°
2026-05-08 16:37 46.78856 19.02123 37019 ft 447 kts 167°
2026-05-08 16:37 46.72925 19.04836 37020 ft 447 kts 167°
2026-05-08 16:38 46.66993 19.07543 37019 ft 447 kts 167°
2026-05-08 16:38 46.61058 19.10244 37022 ft 447 kts 167°
2026-05-08 16:39 46.55121 19.12941 37016 ft 447 kts 168°
2026-05-08 16:39 46.49182 19.15632 37016 ft 447 kts 168°
2026-05-08 16:40 46.43239 19.18319 37016 ft 447 kts 167°
2026-05-08 16:40 46.37294 19.21001 37015 ft 448 kts 167°
2026-05-08 16:41 46.31345 19.23679 37016 ft 448 kts 167°
2026-05-08 16:42 46.22415 19.27687 37013 ft 448 kts 167°
2026-05-08 16:42 46.16460 19.30352 37014 ft 448 kts 167°
2026-05-08 16:43 46.10548 19.32993 37010 ft 448 kts 167°
2026-05-08 16:43 46.04590 19.35610 37007 ft 446 kts 171°
2026-05-08 16:44 45.98526 19.37158 37008 ft 442 kts 176°
2026-05-08 16:44 45.92441 19.38496 37011 ft 442 kts 176°
2026-05-08 16:45 45.86362 19.39856 37005 ft 442 kts 175°
2026-05-08 16:45 45.80282 19.41245 37003 ft 443 kts 175°
2026-05-08 16:46 45.74202 19.42644 37011 ft 443 kts 175°
2026-05-08 16:46 45.68118 19.44043 37007 ft 443 kts 175°
2026-05-08 16:47 45.62036 19.45438 36998 ft 443 kts 175°
2026-05-08 16:47 45.55948 19.46830 37003 ft 443 kts 175°
2026-05-08 16:48 45.49860 19.48219 37006 ft 443 kts 175°
2026-05-08 16:48 45.43770 19.49605 37005 ft 444 kts 175°
2026-05-08 16:49 45.37671 19.50990 37003 ft 444 kts 175°
2026-05-08 16:49 45.31569 19.52373 37001 ft 444 kts 175°
2026-05-08 16:50 45.25459 19.53755 37001 ft 445 kts 175°
2026-05-08 16:50 45.19337 19.55136 37002 ft 445 kts 175°
2026-05-08 16:51 45.13213 19.56515 37000 ft 446 kts 175°
2026-05-08 16:51 45.07082 19.57892 36995 ft 447 kts 175°
2026-05-08 16:52 45.00981 19.59260 36996 ft 447 kts 175°
2026-05-08 16:52 44.94832 19.60636 36998 ft 448 kts 175°
2026-05-08 16:53 44.85591 19.62698 36995 ft 449 kts 175°
2026-05-08 16:53 44.79419 19.64071 36995 ft 449 kts 175°
2026-05-08 16:54 44.73236 19.65444 36998 ft 450 kts 175°
2026-05-08 16:54 44.67042 19.66816 36994 ft 451 kts 175°
2026-05-08 16:55 44.60846 19.68186 37000 ft 451 kts 175°
2026-05-08 16:55 44.54641 19.69555 36992 ft 452 kts 175°
2026-05-08 16:56 44.48426 19.70923 36998 ft 452 kts 175°
2026-05-08 16:56 44.42212 19.72288 37001 ft 452 kts 176°
2026-05-08 16:57 44.35989 19.73652 36998 ft 453 kts 176°
2026-05-08 16:57 44.29770 19.75012 37008 ft 453 kts 176°
2026-05-08 16:58 44.23541 19.76371 37010 ft 453 kts 176°
2026-05-08 16:58 44.17303 19.77730 37005 ft 454 kts 176°
2026-05-08 16:59 44.11060 19.79087 37001 ft 454 kts 176°
2026-05-08 16:59 44.04824 19.80437 37003 ft 453 kts 177°
2026-05-08 17:00 43.98615 19.80496 37025 ft 443 kts 191°
2026-05-08 17:00 43.92486 19.79566 37003 ft 443 kts 191°
2026-05-08 17:01 43.86357 19.78634 36987 ft 443 kts 191°
2026-05-08 17:01 43.80217 19.77749 37002 ft 444 kts 190°
2026-05-08 17:02 43.74074 19.76887 37008 ft 444 kts 191°
2026-05-08 17:02 43.67917 19.76032 37015 ft 445 kts 191°
2026-05-08 17:03 43.61785 19.75183 37011 ft 446 kts 191°
2026-05-08 17:03 43.55560 19.74319 37011 ft 447 kts 191°
2026-05-08 17:04 43.49407 19.73467 37012 ft 448 kts 191°
2026-05-08 17:04 43.43209 19.72611 37013 ft 448 kts 191°
2026-05-08 17:05 43.37002 19.71756 37015 ft 447 kts 191°
2026-05-08 17:05 43.30802 19.70902 37006 ft 448 kts 191°
2026-05-08 17:06 43.24606 19.70053 37002 ft 447 kts 191°
2026-05-08 17:06 43.18407 19.69204 36995 ft 447 kts 191°
2026-05-08 17:07 43.12214 19.68357 37009 ft 448 kts 191°
2026-05-08 17:07 43.09111 19.67933 36882 ft 450 kts 191°
2026-05-08 17:07 43.05969 19.67502 36283 ft 453 kts 191°
2026-05-08 17:08 43.02845 19.67076 35651 ft 451 kts 191°
2026-05-08 17:08 42.99720 19.66652 34941 ft 452 kts 191°
2026-05-08 17:08 42.96594 19.66228 34220 ft 452 kts 191°
2026-05-08 17:08 42.93456 19.65802 33381 ft 453 kts 191°
2026-05-08 17:09 42.90322 19.65376 32573 ft 453 kts 191°
2026-05-08 17:09 42.87177 19.64950 31763 ft 454 kts 191°
2026-05-08 17:09 42.84033 19.64525 30944 ft 454 kts 191°
2026-05-08 17:09 42.80882 19.64098 30105 ft 456 kts 191°
2026-05-08 17:10 42.77720 19.63670 29089 ft 458 kts 190°
2026-05-08 17:10 42.74547 19.63242 28096 ft 458 kts 190°
2026-05-08 17:10 42.71368 19.62813 27091 ft 459 kts 189°
2026-05-08 17:10 42.68198 19.62387 26341 ft 455 kts 189°
2026-05-08 17:11 42.65063 19.61968 25628 ft 451 kts 189°
2026-05-08 17:11 42.61958 19.61551 24918 ft 447 kts 189°
2026-05-08 17:11 42.58927 19.61143 24230 ft 442 kts 188°
2026-05-08 17:11 42.55874 19.60733 23529 ft 439 kts 188°
2026-05-08 17:12 42.52850 19.60285 22688 ft 435 kts 191°
2026-05-08 17:12 42.49901 19.59534 21998 ft 428 kts 194°
2026-05-08 17:12 42.46993 19.58723 21289 ft 424 kts 194°
2026-05-08 17:12 42.44121 19.57909 20584 ft 420 kts 195°
2026-05-08 17:13 42.41270 19.57105 19902 ft 416 kts 195°
2026-05-08 17:13 42.38449 19.56317 19220 ft 412 kts 195°
2026-05-08 17:13 42.35655 19.55544 18548 ft 409 kts 195°
2026-05-08 17:13 42.32877 19.54781 17800 ft 406 kts 195°
2026-05-08 17:14 42.31045 19.54280 17313 ft 404 kts 194°
2026-05-08 17:14 42.28309 19.53533 16608 ft 400 kts 194°
2026-05-08 17:14 42.25590 19.52791 15916 ft 397 kts 194°
2026-05-08 17:14 42.22896 19.52060 15244 ft 393 kts 194°
2026-05-08 17:15 42.20224 19.51332 14589 ft 390 kts 194°
2026-05-08 17:15 42.17573 19.50609 13921 ft 388 kts 194°
2026-05-08 17:15 42.14931 19.49890 13195 ft 386 kts 194°
2026-05-08 17:15 42.12330 19.49184 12867 ft 373 kts 194°
2026-05-08 17:16 42.09833 19.48509 12690 ft 358 kts 194°
2026-05-08 17:16 42.07438 19.47860 12541 ft 344 kts 194°
2026-05-08 17:16 42.05100 19.47226 12397 ft 332 kts 194°
2026-05-08 17:16 42.02905 19.46634 12249 ft 321 kts 194°
2026-05-08 17:17 42.00757 19.46053 12124 ft 310 kts 194°
2026-05-08 17:17 41.98666 19.45503 11995 ft 301 kts 191°
2026-05-08 17:17 41.96600 19.45523 11822 ft 297 kts 175°
2026-05-08 17:17 41.94536 19.45979 11396 ft 301 kts 173°
2026-05-08 17:18 41.92480 19.46504 11034 ft 301 kts 172°
2026-05-08 17:18 41.90427 19.47032 10663 ft 301 kts 172°
2026-05-08 17:18 41.88367 19.47552 10300 ft 301 kts 172°
2026-05-08 17:18 41.86311 19.48060 9958 ft 301 kts 172°
2026-05-08 17:19 41.84250 19.48561 9549 ft 301 kts 172°
2026-05-08 17:19 41.82194 19.49056 9158 ft 300 kts 172°
2026-05-08 17:19 41.80147 19.49545 8783 ft 299 kts 172°
2026-05-08 17:19 41.78104 19.50032 8424 ft 296 kts 172°
2026-05-08 17:20 41.76111 19.50506 8055 ft 286 kts 172°
2026-05-08 17:20 41.74181 19.50965 7707 ft 277 kts 172°
2026-05-08 17:20 41.72309 19.51409 7392 ft 269 kts 172°
2026-05-08 17:20 41.70482 19.51841 7090 ft 265 kts 172°
2026-05-08 17:21 41.68651 19.52273 6796 ft 270 kts 171°
2026-05-08 17:21 41.66796 19.52796 6453 ft 275 kts 161°
2026-05-08 17:21 41.65192 19.54203 6019 ft 282 kts 134°
2026-05-08 17:21 41.64224 19.56457 5603 ft 289 kts 108°
2026-05-08 17:22 41.64050 19.59152 5201 ft 295 kts 87°
2026-05-08 17:22 41.64266 19.61915 4794 ft 297 kts 85°
2026-05-08 17:22 41.64498 19.64629 4359 ft 298 kts 85°
2026-05-08 17:22 41.64600 19.67369 3949 ft 296 kts 100°
2026-05-08 17:23 41.63766 19.69813 3598 ft 286 kts 133°
2026-05-08 17:23 41.62122 19.71158 3237 ft 274 kts 167°
2026-05-08 17:23 41.60275 19.71128 3062 ft 258 kts 188°
2026-05-08 17:23 41.58527 19.70905 3004 ft 240 kts 181°
2026-05-08 17:24 41.56931 19.70924 2894 ft 228 kts 180°
2026-05-08 17:24 41.55357 19.70856 2620 ft 224 kts 181°
2026-05-08 17:24 41.53827 19.70816 2338 ft 216 kts 179°
2026-05-08 17:24 41.52360 19.70845 2057 ft 207 kts 177°
2026-05-08 17:25 41.50947 19.70927 1792 ft 198 kts 176°
2026-05-08 17:25 41.49636 19.71020 1541 ft 178 kts 176°
2026-05-08 17:25 41.48485 19.71131 1302 ft 156 kts 174°
2026-05-08 17:25 41.47474 19.71260 1134 ft 143 kts 174°
2026-05-08 17:26 41.46500 19.71389 963 ft 138 kts 174°
2026-05-08 17:26 41.45542 19.71494 793 ft 140 kts 176°
2026-05-08 17:26 41.44571 19.71585 630 ft 139 kts 173°
2026-05-08 17:26 41.43595 19.71731 422 ft 140 kts 173°
2026-05-08 17:27 41.42634 19.71893 183 ft 139 kts 174°
2026-05-08 17:27 41.41699 19.72025 120 ft 134 kts 176°
2026-05-08 17:27 41.40818 19.72142 125 ft 93 kts 174°
2026-05-08 17:27 41.40496 19.72184 128 ft 34 kts 173°
2026-05-08 17:28 41.40279 19.72174 132 ft 30 kts 214°
2026-05-08 17:28 41.40278 19.71940 133 ft 28 kts 316°
2026-05-08 17:28 41.40433 19.71801 132 ft 26 kts 338°
2026-05-08 17:28 41.40606 19.71770 131 ft 24 kts 355°
2026-05-08 17:29 41.40768 19.71747 129 ft 23 kts 352°
2026-05-08 17:29 41.40923 19.71718 125 ft 22 kts 352°
2026-05-08 17:29 41.41074 19.71698 125 ft 22 kts 355°
2026-05-08 17:29 41.41221 19.71679 124 ft 21 kts 354°
2026-05-08 17:30 41.41364 19.71661 125 ft 20 kts 354°
2026-05-08 17:30 41.41502 19.71641 125 ft 20 kts 353°
2026-05-08 17:30 41.41636 19.71622 124 ft 19 kts 354°
2026-05-08 17:30 41.41766 19.71604 121 ft 18 kts 354°
2026-05-08 17:31 41.41891 19.71584 122 ft 18 kts 345°
2026-05-08 17:31 41.41927 19.71546 122 ft 0 kts 298°
2026-05-08 17:31 41.41928 19.71535 121 ft 6 kts 278°
2026-05-08 17:31 41.41925 19.71507 122 ft 0 kts 255°